| time (UTC) | temp C | wind direction | speed KPH | gust KPH | rain 1hr cm | rain 24hr cm | rain mn cm | humidity % | barometer mb |
| 20260905044532 | 13 | 31 | 0.0 | 1.6 | 0.00 | 0.03 | 0.03 | 81 | 1013.6 |
| 20260905041530 | 12 | 22 | 0.0 | 3.2 | 0.00 | 0.03 | 0.03 | 80 | 1013.4 |
| 20260905040107 | 13 | 17 | 3.2 | 6.4 | 0.00 | 0.03 | 0.03 | 80 | 1013.4 |
| 20260905034603 | 13 | 36 | 4.8 | 6.4 | 0.00 | 0.03 | 0.03 | 80 | 1013.2 |
| 20260905033030 | 13 | 22 | 3.2 | 6.4 | 0.00 | 0.03 | 0.03 | 79 | 1013.0 |
| 20260905031529 | 13 | 12 | 4.8 | 8.0 | 0.00 | 0.03 | 0.03 | 77 | 1012.9 |
| 20260905030031 | 14 | 208 | 0.0 | 3.2 | 0.00 | 0.03 | 0.03 | 75 | 1012.8 |
| 20260905024530 | 15 | 51 | 1.6 | 6.4 | 0.00 | 0.03 | 0.03 | 75 | 1012.7 |
| 20260905021531 | 14 | 46 | 4.8 | 9.7 | 0.00 | 0.03 | 0.03 | 75 | 1012.7 |
| 20260905014532 | 15 | 10 | 6.4 | 9.7 | 0.00 | 0.03 | 0.03 | 71 | 1012.3 |
| 20260905013029 | 16 | 345 | 4.8 | 11.3 | 0.00 | 0.03 | 0.03 | 68 | 1012.2 |
| 20260905011530 | 18 | 281 | 6.4 | 12.9 | 0.00 | 0.03 | 0.03 | 68 | 1012.0 |
| 20260905010032 | 18 | 310 | 4.8 | 9.7 | 0.00 | 0.03 | 0.03 | 70 | 1012.0 |
| 20260905004531 | 17 | 345 | 8.0 | 14.5 | 0.00 | 0.03 | 0.03 | 72 | 1011.9 |
| 20260905003032 | 17 | 337 | 4.8 | 11.3 | 0.00 | 0.03 | 0.03 | 72 | 1011.8 |
| 20260905001529 | 17 | 266 | 3.2 | 8.0 | 0.00 | 0.03 | 0.03 | 71 | 1011.8 |
| 20260905000029 | 17 | 211 | 1.6 | 3.2 | 0.00 | 0.03 | 0.03 | 67 | 1011.7 |
| 20260904234531 | 18 | 164 | 0.0 | 1.6 | 0.00 | 0.03 | 0.03 | 67 | 1011.6 |
| 20260904233109 | 17 | 157 | 1.6 | 6.4 | 0.00 | 0.03 | 0.03 | 68 | 1011.7 |
| 20260904231532 | 16 | 169 | 4.8 | 8.0 | 0.00 | 0.03 | 0.03 | 70 | 1011.7 |
| 20260904230106 | 16 | 164 | 6.4 | 12.9 | 0.00 | 0.03 | 0.03 | 69 | 1011.8 |
| 20260904224531 | 17 | 180 | 3.2 | 11.3 | 0.00 | 0.03 | 0.03 | 69 | 1011.7 |
| 20260904223031 | 17 | 185 | 4.8 | 11.3 | 0.00 | 0.03 | 0.03 | 69 | 1011.6 |
| 20260904214529 | 18 | 247 | 1.6 | 4.8 | 0.00 | 0.03 | 0.03 | 71 | 1011.3 |
| 20260904213105 | 17 | 226 | 3.2 | 6.4 | 0.00 | 0.03 | 0.03 | 73 | 1011.3 |
| 20260904210028 | 18 | 88 | 0.0 | 3.2 | 0.00 | 0.03 | 0.03 | 73 | 1011.2 |
| 20260904204606 | 17 | 166 | 1.6 | 4.8 | 0.00 | 0.03 | 0.03 | 75 | 1011.3 |
| 20260904203029 | 17 | 202 | 1.6 | 4.8 | 0.00 | 0.03 | 0.03 | 76 | 1011.3 |
| 20260904201529 | 16 | 176 | 1.6 | 6.4 | 0.00 | 0.03 | 0.03 | 76 | 1011.4 |
| 20260904200029 | 17 | 191 | 3.2 | 8.0 | 0.00 | 0.03 | 0.03 | 76 | 1011.5 |
| 20260904194530 | 17 | 268 | 1.6 | 6.4 | 0.00 | 0.03 | 0.03 | 78 | 1011.6 |
| 20260904193043 | 16 | 237 | 0.0 | 4.8 | 0.00 | 0.03 | 0.03 | 79 | 1011.8 |
| 20260904191532 | 16 | 185 | 0.0 | 3.2 | 0.00 | 0.03 | 0.03 | 80 | 1011.8 |
| 20260904190030 | 15 | 232 | 3.2 | 6.4 | 0.00 | 0.03 | 0.03 | 83 | 1011.9 |
| 20260904180030 | 13 | 117 | 0.0 | 1.6 | 0.00 | 0.03 | 0.03 | 90 | 1011.9 |
| 20260904174530 | 13 | 184 | 0.0 | 4.8 | 0.00 | 0.03 | 0.03 | 89 | 1012.0 |
| 20260904173106 | 13 | 180 | 1.6 | 6.4 | 0.00 | 0.03 | 0.03 | 89 | 1012.0 |
| 20260904171530 | 14 | 217 | 3.2 | 8.0 | 0.00 | 0.03 | 0.03 | 88 | 1011.9 |
| 20260904170029 | 15 | 176 | 1.6 | 6.4 | 0.00 | 0.03 | 0.03 | 88 | 1011.8 |
| 20260904160032 | 12 | 219 | 1.6 | 4.8 | 0.00 | 0.03 | 0.03 | 94 | 1011.8 |
| 20260904154529 | 11 | 202 | 0.0 | 1.6 | 0.00 | 0.03 | 0.03 | 96 | 1011.7 |
| 20260904150105 | 10 | 180 | 0.0 | 4.8 | 0.00 | 0.03 | 0.03 | 97 | 1011.3 |
| 20260904144532 | 10 | 180 | 1.6 | 3.2 | 0.00 | 0.03 | 0.03 | 97 | 1011.2 |
| 20260904143034 | 10 | 169 | 1.6 | 3.2 | 0.00 | 0.03 | 0.03 | 97 | 1011.1 |
| 20260904140041 | 9 | 105 | 0.0 | 3.2 | 0.03 | 0.03 | 0.03 | 96 | 1010.8 |
| 20260904134531 | 9 | 8 | 0.0 | 0.0 | 0.03 | 0.03 | 0.03 | 96 | 1010.7 |
| 20260904133031 | 9 | 360 | 0.0 | 1.6 | 0.03 | 0.03 | 0.00 | 96 | 1010.5 |
| 20260904131528 | 9 | 51 | 0.0 | 3.2 | 0.00 | 0.00 | 0.00 | 96 | 1010.4 |
| 20260904130029 | 9 | 67 | 0.0 | 1.6 | 0.00 | 0.00 | 0.00 | 96 | 1010.2 |
| 20260904124527 | 9 | 87 | 0.0 | 1.6 | 0.00 | 0.00 | 0.00 | 96 | 1010.2 |
| 20260904123032 | 9 | 90 | 0.0 | 0.0 | 0.00 | 0.00 | 0.00 | 96 | 1010.2 |
| 20260904120032 | 9 | 90 | 0.0 | 1.6 | 0.00 | 0.00 | 0.00 | 95 | 1010.0 |
| 20260904114531 | 9 | 91 | 0.0 | 1.6 | 0.00 | 0.00 | 0.00 | 95 | 1009.8 |
| 20260904113030 | 10 | 173 | 1.6 | 4.8 | 0.00 | 0.00 | 0.00 | 95 | 1009.7 |
| 20260904111530 | 10 | 90 | 0.0 | 0.0 | 0.00 | 0.00 | 0.00 | 95 | 1009.5 |
| 20260904110109 | 10 | 90 | 0.0 | 0.0 | 0.00 | 0.00 | 0.00 | 95 | 1009.5 |
| 20260904104531 | 10 | 90 | 0.0 | 0.0 | 0.00 | 0.00 | 0.00 | 95 | 1009.4 |
| 20260904101531 | 9 | 90 | 0.0 | 0.0 | 0.00 | 0.00 | 0.00 | 95 | 1009.2 |
| 20260904094532 | 9 | 90 | 0.0 | 1.6 | 0.00 | 0.00 | 0.00 | 95 | 1008.9 |
| 20260904091530 | 9 | 160 | 0.0 | 3.2 | 0.00 | 0.00 | 0.00 | 94 | 1008.9 |
| 20260904090107 | 9 | 157 | 0.0 | 0.0 | 0.00 | 0.00 | 0.00 | 94 | 1008.8 |
| 20260904084531 | 9 | 169 | 0.0 | 4.8 | 0.00 | 0.00 | 0.00 | 93 | 1008.8 |
| 20260904083030 | 10 | 202 | 0.0 | 1.6 | 0.00 | 0.00 | 0.00 | 93 | 1008.6 |
| 20260904081530 | 10 | 202 | 0.0 | 0.0 | 0.00 | 0.00 | 0.00 | 93 | 1008.6 |
| 20260904073031 | 10 | 202 | 1.6 | 3.2 | 0.00 | 0.00 | 0.00 | 92 | 1008.7 |
| 20260904071530 | 10 | 164 | 0.0 | 0.0 | 0.00 | 0.00 | 0.00 | 91 | 1008.7 |
| 20260904070033 | 10 | 136 | 0.0 | 3.2 | 0.00 | 0.00 | 0.00 | 91 | 1008.5 |
| 20260904061530 | 10 | 67 | 0.0 | 3.2 | 0.00 | 0.00 | 0.00 | 90 | 1008.5 |
| 20260904060108 | 10 | 67 | 1.6 | 3.2 | 0.00 | 0.00 | 0.00 | 89 | 1008.5 |
| 20260904054531 | 10 | 296 | 0.0 | 4.8 | 0.00 | 0.00 | 0.00 | 88 | 1008.5 |
| 20260904053105 | 11 | 273 | 0.0 | 4.8 | 0.00 | 0.00 | 0.00 | 88 | 1008.5 |
| 20260904051531 | 11 | 337 | 0.0 | 3.2 | 0.00 | 0.00 | 0.00 | 88 | 1008.5 |
| 20260904050107 | 11 | 337 | 0.0 | 0.0 | 0.00 | 0.00 | 0.00 | 88 | 1008.6 |